[[[{"header":{"parameterUnit":"kt","parameterCategory":2,"dx":1,"dy":1,"la1":30.253999710083008,"la2":30.299108505249023,"lo1":-89.0895004272461,"lo2":-89.04439544677734,"nx":28,"ny":28,"refTime":"2022-10-08T21:00:00:Z","depth":0,"parameterNumber":1,"parameterNumberName":"U-component_of_WINDS"},"data":[-3.8775,-3.8817,-3.88,-3.884,-3.883,-3.8855,-3.8858,-3.886,-3.8857,-3.8884,-3.8897,-3.8883,-3.8874,-3.8884,-3.8897,-3.8891,-3.8898,-3.8926,-3.8914,-3.8805,-3.8789,-3.8773,-3.8763,-3.8927,-3.8928,-3.9031,-3.9032,-3.9033,-3.8697,-3.8688,-3.8704,-3.8707,-3.8721,-3.8683,-3.8683,-3.8697,-3.872,-3.8716,-3.8727,-3.875,-3.8765,-3.8745,-3.8757,-3.8777,-3.8761,-3.8782,-3.8781,-3.8781,-3.8662,-3.8651,-3.8795,-3.8795,-3.8795,-3.8795,-3.8795,-3.8795,-3.855,-3.8576,-3.8567,-3.8584,-3.8581,-3.8583,-3.8605,-3.8587,-3.8603,-3.8613,-3.8588,-3.8614,-3.8607,-3.8612,-3.861,-3.8629,-3.8603,-3.8621,-3.8625,-3.8631,-3.864,-3.8496,-3.863,-3.8629,-3.8629,-3.8629,-3.8628,0,-3.8437,-3.8421,-3.8434,-3.8443,-3.8454,-3.8459,-3.8461,-3.8473,-3.8432,-3.8446,-3.8466,-3.8474,-3.849,-3.8506,-3.8513,-3.8506,-3.847,-3.8463,-3.8476,-3.849,-3.8501,-3.8498,-3.8308,-3.846,-3.8459,-3.8458,-3.8457,-3.8456,-3.8289,-3.8321,-3.8303,-3.8316,-3.8312,-3.8332,-3.834,-3.8301,-3.8312,-3.8308,-3.8332,-3.8348,-3.8358,-3.8392,-3.8372,-3.8384,-3.8367,-3.8427,-3.8368,-3.838,-3.837,-3.8369,-3.8373,-3.844,-3.8442,-3.8444,-3.8445,0,-3.8208,-3.8179,-3.8222,-3.8201,-3.8197,-3.8232,-3.8214,-3.8238,-3.8218,-3.8249,-3.8253,-3.8223,-3.8242,-3.8211,-3.8227,-3.8211,-3.827,-3.8252,-3.8272,-3.8268,-3.832,-3.8317,-3.8492,-3.8514,-3.834,-3.8342,-3.8343,0,-3.8072,-3.8115,-3.8068,-3.8095,-3.8141,-3.8101,-3.8148,-3.8135,-3.8128,-3.8152,-3.8104,-3.8128,-3.8084,-3.8103,-3.8078,-3.8121,-3.8123,-3.8114,-3.8107,-3.8119,-3.8121,-3.8126,-3.8119,-3.8089,-3.8088,-3.8087,-3.8086,0,-3.7949,-3.7974,-3.8017,-3.8018,-3.8,-3.8021,-3.8015,-3.8006,-3.8015,-3.8021,-3.8026,-3.8035,-3.8041,-3.805,-3.8019,-3.798,-3.8069,-3.801,-3.806,-3.8061,-3.8083,-3.8082,-3.8243,-3.8085,-3.8085,-3.8085,-3.8084,0,-3.7835,-3.7841,-3.7908,-3.7892,-3.79,-3.7928,-3.7935,-3.7951,-3.7946,-3.7932,-3.7936,-3.7902,-3.7935,-3.7878,-3.7924,-3.7883,-3.7891,-3.7885,-3.7888,-3.7891,-3.7829,-3.7926,-3.8081,-3.8098,-3.7891,-3.7889,-3.7888,0,-3.7704,-3.7762,-3.7728,-3.7792,-3.7815,-3.776,-3.779,-3.7787,-3.7771,-3.7788,-3.777,-3.779,-3.7741,-3.7743,-3.7769,-3.7752,-3.7806,-3.7744,-3.7771,-3.7773,-3.7776,-3.7918,-3.795,-3.805,-3.7867,-3.7869,-3.7871,0,-3.7599,-3.7576,-3.759,-3.759,-3.7578,-3.7597,-3.7632,-3.7642,-3.7656,-3.7656,-3.7685,-3.7711,-3.7676,-3.768,-3.7652,-3.7682,-3.7768,-3.764,-3.7639,-3.7666,-3.7853,-3.7883,-3.79,-3.7744,-3.7746,-3.7748,-3.7854,0,-3.7436,-3.7461,-3.7496,-3.7497,-3.7506,-3.7544,-3.751,-3.7524,-3.7497,-3.7479,-3.752,-3.7509,-3.752,-3.753,-3.7504,-3.758,-3.7563,-3.7525,-3.7469,-3.7562,-3.7596,-3.761,-3.7421,-3.7419,-3.7418,-3.7416,0,0,-3.7319,-3.7354,-3.7315,-3.7347,-3.7353,-3.7296,-3.7339,-3.7338,-3.7337,-3.7342,-3.731,-3.7347,-3.7339,-3.7392,-3.7419,-3.7422,-3.7434,-3.7402,-3.7518,-3.7529,-3.7539,-3.7577,-3.7591,-3.7414,-3.7413,-3.7412,-3.7412,0,-3.7253,-3.7246,-3.7289,-3.7285,-3.7279,-3.7258,-3.7269,-3.7253,-3.7243,-3.7282,-3.7236,-3.7256,-3.7286,-3.7285,-3.7288,-3.7395,-3.7359,-3.74,-3.7469,-3.7503,-3.7516,-3.7528,-3.7568,-3.7582,-3.7408,-3.7408,-3.7408,0,-3.7145,-3.7133,-3.715,-3.7159,-3.7154,-3.7179,-3.7112,-3.7141,-3.7159,-3.7095,-3.7135,-3.7125,-3.712,-3.7174,-3.7197,-3.7169,-3.7293,-3.7247,-3.7256,-3.7259,-3.7289,-3.7306,-3.732,-3.713,-3.7129,-3.7128,0,0,-3.7093,-3.7115,-3.709,-3.7142,-3.7143,-3.7112,-3.7122,-3.7095,-3.7092,-3.7091,-3.7077,-3.7075,-3.7092,-3.7104,-3.7118,-3.7182,-3.7178,-3.7214,-3.7227,-3.7238,-3.7247,-3.7281,-3.7297,-3.7125,-3.7125,-3.7125,0,0,-3.7068,-3.7041,-3.7013,-3.707,-3.7068,-3.7047,-3.708,-3.7047,-3.7056,-3.7048,-3.7005,-3.7003,-3.7053,-3.7044,-3.7006,-3.7098,-3.7043,-3.7051,-3.7102,-3.7118,-3.7131,-3.7133,-3.6937,0,0,0,0,0,-3.6983,-3.7044,-3.7019,-3.7024,-3.7035,-3.706,-3.7062,-3.7028,-3.699,-3.7017,-3.7,-3.696,-3.7015,-3.698,-3.6985,-3.7029,-3.7085,-3.7092,-3.7099,-3.7178,-3.7196,-3.721,0,0,0,0,0,0,-3.6985,-3.699,-3.7018,-3.7,-3.7002,-3.7058,-3.6986,-3.6978,-3.6986,-3.6978,-3.6964,-3.696,-3.6931,-3.6975,-3.698,-3.7023,-3.6935,-3.7087,-3.7094,-3.7099,-3.7184,-3.7198,-3.721,0,0,0,0,0,-3.6986,-3.699,-3.7018,-3.6999,-3.7001,-3.697,-3.6984,-3.6977,-3.6982,-3.6955,-3.6949,-3.6955,-3.6933,-3.6935,-3.6978,-3.7021,-3.6931,-3.6933,-3.7091,-3.7096,-3.71,-3.7191,0,0,0,0,0,0,-3.6986,-3.6984,-3.7017,-3.7017,-3.6973,-3.6966,-3.6964,-3.6975,-3.6958,-3.6953,-3.6944,-3.6938,-3.6935,-3.6937,-3.6938,-3.7023,-3.6928,-3.693,-3.6931,-3.7095,-3.7099,-3.7102,0,0,0,0,0,0,-3.6981,-3.6984,-3.7017,-3.6987,-3.6982,-3.6963,-3.6961,-3.6992,-3.6959,-3.6947,-3.6942,-3.6941,-3.6933,-3.6938,-3.6939,-3.6989,-3.6925,-3.6927,-3.6929,-3.693,-3.7098,-3.7101,0,0,0,0,0,0,-3.6982,-3.6984,-3.6987,-3.6983,-3.6979,-3.6969,-3.699,-3.7003,-3.6933,-3.6949,-3.6925,-3.6922,-3.6935,-3.6936,-3.694,-3.699,-3.6989,-3.6925,-3.6927,-3.6928,-3.6928,0,0,0,0,0,0,0,-3.6982,-3.6976,-3.7021,-3.698,-3.6977,-3.701,-3.701,-3.701,-3.6932,-3.6929,-3.6926,-3.6923,-3.6914,-3.6916,-3.6918,-3.699,0,0,-3.6925,-3.6926,0,0,0,0,0,0,0,0,-3.6974,-3.6975,-3.7021,-3.7021,-3.7021,-3.701,-3.701,-3.701,-3.6931,-3.6929,-3.6927,-3.6925,-3.6914,-3.6916,-3.6918,0,0,0,0,0,0,0,0,0,0,0,0,0,0,0,-3.7021,-3.7021,0,-3.701,-3.701,-3.701,-3.6931,-3.6929,-3.6927,-3.6925,-3.6915,-3.6916,-3.6918,0,0,0,0,0,0,0,0,0,0,0,0,0,0,0,0,0,0,0,0,0,0,0,0,0,0,0,0,0,0,0,0,0,0,0,0,0,0,0,0,0,0,0,0,0,0,0,0,0,0,0,0,0,0,0,0,0,0,0,0,0,0,0,0,0,0,0,0,0]}],[{"header":{"parameterUnit":"kt","parameterCategory":2,"dx":1,"dy":1,"la1":30.253999710083008,"la2":30.299108505249023,"lo1":-89.0895004272461,"lo2":-89.04439544677734,"nx":28,"ny":28,"refTime":"2022-10-08T21:00:00:Z","depth":0,"parameterNumber":2,"parameterNumberName":"V-component_of_WINDS"},"data":[-8.5163,-8.5265,-8.5295,-8.5423,-8.547,-8.5562,-8.5603,-8.5659,-8.5709,-8.5819,-8.5886,-8.5921,-8.5979,-8.6063,-8.6135,-8.6148,-8.6178,-8.6195,-8.6208,-8.6108,-8.6096,-8.6085,-8.6065,-8.6201,-8.6201,-8.6309,-8.631,-8.6311,-8.5092,-8.5141,-8.5217,-8.5309,-8.5374,-8.5376,-8.5447,-8.5501,-8.5581,-8.5643,-8.571,-8.5807,-8.5885,-8.5938,-8.6017,-8.6062,-8.6066,-8.6082,-8.608,-8.609,-8.5983,-8.5962,-8.6078,-8.6078,-8.6078,-8.6078,-8.6078,-8.6078,-8.4971,-8.503,-8.5103,-8.5186,-8.5239,-8.53,-8.536,-8.5403,-8.5475,-8.5564,-8.5579,-8.5668,-8.5733,-8.5838,-8.5879,-8.5948,-8.5934,-8.5959,-8.5966,-8.5972,-8.5978,-8.5824,-8.5961,-8.5961,-8.5961,-8.5961,-8.596,0,-8.4891,-8.4912,-8.4985,-8.5068,-8.5129,-8.5194,-8.5258,-8.5295,-8.5341,-8.5397,-8.5481,-8.5533,-8.5634,-8.5714,-8.5792,-8.5829,-8.5833,-8.5834,-8.5852,-8.5849,-8.5837,-8.5848,-8.5677,-8.583,-8.5829,-8.5828,-8.5828,-8.5827,-8.4774,-8.4838,-8.4926,-8.4974,-8.5016,-8.5091,-8.5142,-8.5177,-8.5228,-8.5309,-8.5358,-8.5438,-8.5505,-8.5629,-8.5674,-8.5748,-8.5751,-8.5807,-8.5761,-8.5756,-8.5755,-8.5753,-8.576,-8.5816,-8.5818,-8.5819,-8.582,0,-8.4706,-8.475,-8.4858,-8.4937,-8.4959,-8.5023,-8.509,-8.5148,-8.5181,-8.5266,-8.5287,-8.5339,-8.5418,-8.5454,-8.5549,-8.5565,-8.567,-8.5669,-8.565,-8.5653,-8.571,-8.5705,-8.5882,-8.5908,-8.5764,-8.5765,-8.5766,0,-8.4624,-8.4705,-8.4768,-8.4827,-8.4919,-8.4954,-8.5043,-8.5081,-8.5137,-8.5204,-8.5214,-8.5276,-8.5311,-8.5377,-8.5401,-8.5492,-8.5509,-8.5528,-8.5533,-8.5529,-8.5527,-8.5556,-8.5551,-8.5539,-8.5538,-8.5538,-8.5537,0,-8.4515,-8.4641,-8.4739,-8.4775,-8.4865,-8.4909,-8.4948,-8.5011,-8.5058,-8.5124,-8.5155,-8.5228,-8.5268,-8.5323,-8.5354,-8.5322,-8.5465,-8.5427,-8.5484,-8.5484,-8.5516,-8.5514,-8.5659,-8.5536,-8.5535,-8.5535,-8.5535,0,-8.4456,-8.4526,-8.4659,-8.4736,-8.4767,-8.4829,-8.4907,-8.4968,-8.5032,-8.5053,-8.5104,-8.5115,-8.5196,-8.5157,-8.5269,-8.522,-8.5258,-8.5283,-8.5287,-8.5299,-8.5254,-8.5335,-8.5468,-8.5485,-8.5307,-8.5305,-8.5303,0,-8.4321,-8.4467,-8.4498,-8.4622,-8.4694,-8.4705,-8.4774,-8.4831,-8.4863,-8.4928,-8.4961,-8.5033,-8.5011,-8.5038,-8.5088,-8.5126,-8.519,-8.5118,-8.5209,-8.5212,-8.5196,-8.5318,-8.5331,-8.5435,-8.5279,-8.5282,-8.5284,0,-8.4222,-8.4333,-8.4353,-8.4396,-8.4478,-8.4537,-8.4615,-8.4695,-8.4736,-8.4796,-8.4863,-8.4961,-8.495,-8.4994,-8.5009,-8.506,-8.5147,-8.504,-8.5042,-8.5061,-8.5269,-8.5281,-8.5299,-8.5146,-8.5149,-8.5152,-8.5264,0,-8.413,-8.4207,-8.4261,-8.4353,-8.4404,-8.4481,-8.4523,-8.457,-8.4583,-8.4615,-8.4711,-8.4763,-8.4841,-8.4867,-8.4878,-8.4982,-8.497,-8.4956,-8.4921,-8.5,-8.5038,-8.5053,-8.4861,-8.4861,-8.486,-8.4859,0,0,-8.3991,-8.4103,-8.4133,-8.4212,-8.4257,-8.4266,-8.4346,-8.439,-8.4478,-8.4508,-8.4489,-8.4636,-8.4678,-8.479,-8.4817,-8.4847,-8.4869,-8.4839,-8.4961,-8.4972,-8.4983,-8.5023,-8.5039,-8.4858,-8.4858,-8.4858,-8.4857,0,-8.3967,-8.4015,-8.4095,-8.4143,-8.4215,-8.4246,-8.4265,-8.4337,-8.4361,-8.4455,-8.4459,-8.452,-8.4633,-8.468,-8.4718,-8.4827,-8.4826,-8.4846,-8.4895,-8.4953,-8.4965,-8.4976,-8.5018,-8.5032,-8.4856,-8.4856,-8.4856,0,-8.388,-8.3935,-8.3977,-8.408,-8.4126,-8.4198,-8.4173,-8.4248,-8.4302,-8.4303,-8.4396,-8.4429,-8.4492,-8.4591,-8.4637,-8.4621,-8.4784,-8.4737,-8.4742,-8.4749,-8.4807,-8.4821,-8.4834,-8.4665,-8.4664,-8.4663,0,0,-8.3853,-8.3924,-8.3992,-8.4078,-8.4107,-8.4153,-8.4194,-8.4211,-8.427,-8.4293,-8.4336,-8.4391,-8.4458,-8.4501,-8.4565,-8.4668,-8.4684,-8.4712,-8.4721,-8.4729,-8.4739,-8.4799,-8.4813,-8.466,-8.466,-8.466,0,0,-8.3839,-8.3924,-8.3927,-8.4031,-8.4089,-8.4159,-8.4209,-8.4213,-8.4276,-8.4271,-8.4299,-8.4314,-8.4407,-8.4439,-8.4394,-8.4554,-8.4518,-8.4529,-8.453,-8.4542,-8.4551,-8.4542,-8.4374,0,0,0,0,0,-8.3836,-8.3914,-8.3916,-8.3939,-8.4067,-8.4159,-8.4175,-8.4202,-8.4179,-8.4218,-8.4255,-8.425,-8.4421,-8.4383,-8.4404,-8.4454,-8.4621,-8.4628,-8.4635,-8.466,-8.4672,-8.4682,0,0,0,0,0,0,-8.3846,-8.3875,-8.3914,-8.3987,-8.4016,-8.4156,-8.4122,-8.4132,-8.4175,-8.4173,-8.4243,-8.4252,-8.4274,-8.4374,-8.4392,-8.4439,-8.4368,-8.4624,-8.463,-8.4635,-8.4664,-8.4674,-8.4682,0,0,0,0,0,-8.3853,-8.3877,-8.4075,-8.3986,-8.4012,-8.4067,-8.4119,-8.4127,-8.4161,-8.4218,-8.4226,-8.4178,-8.4275,-8.4292,-8.4385,-8.443,-8.4355,-8.4362,-8.4628,-8.4632,-8.4636,-8.4669,0,0,0,0,0,0,-8.3859,-8.3883,-8.408,-8.4089,-8.396,-8.4059,-8.4076,-8.4123,-8.4203,-8.4213,-8.4153,-8.4151,-8.4276,-8.429,-8.4303,-8.4425,-8.4344,-8.4351,-8.4356,-8.4631,-8.4635,-8.4638,0,0,0,0,0,0,-8.3871,-8.3891,-8.4085,-8.4049,-8.4054,-8.4052,-8.4067,-8.4148,-8.4203,-8.4133,-8.4134,-8.4151,-8.4255,-8.4288,-8.4298,-8.4423,-8.4336,-8.4343,-8.4348,-8.4351,-8.4634,-8.4637,0,0,0,0,0,0,-8.388,-8.3896,-8.4047,-8.4051,-8.4055,-8.4152,-8.4124,-8.4252,-8.4176,-8.413,-8.417,-8.4167,-8.4253,-8.4264,-8.4295,-8.4416,-8.4421,-8.4337,-8.4341,-8.4344,-8.4347,0,0,0,0,0,0,0,-8.3887,-8.3768,-8.403,-8.4052,-8.4055,-8.4168,-8.417,-8.4172,-8.4176,-8.4173,-8.4171,-8.4168,-8.4298,-8.4305,-8.4313,-8.441,0,0,-8.4336,-8.4339,0,0,0,0,0,0,0,0,-8.3762,-8.3767,-8.403,-8.4032,-8.4034,-8.4168,-8.417,-8.4172,-8.4175,-8.4173,-8.4171,-8.4169,-8.43,-8.4306,-8.4312,0,0,0,0,0,0,0,0,0,0,0,0,0,0,0,-8.403,-8.4032,0,-8.4168,-8.417,-8.4172,-8.4175,-8.4173,-8.4172,-8.417,-8.4301,-8.4306,-8.4311,0,0,0,0,0,0,0,0,0,0,0,0,0,0,0,0,0,0,0,0,0,0,0,0,0,0,0,0,0,0,0,0,0,0,0,0,0,0,0,0,0,0,0,0,0,0,0,0,0,0,0,0,0,0,0,0,0,0,0,0,0,0,0,0,0,0,0,0,0]}]]]